DW4240 Wolfenbuettel DE current weather conditions

sailwx.info

Wind from 220 at 8 knots

Last reported at 2019-Dec-11 00:00 UTC.
Time now 2019-Dec-11 00:52 UTC

Location: N 52°09' E 010°35'.
View on Google Maps.

See reports from other nearby stations

  
Tides and Currents Weather Stations Pressure Air Temp Water Temp Dewpoint Dewpoint Depression Visibility Wind Speed Wind Dir Waves Ship Positions
date/time (UTC)wind fromknots sea level pressurealtimeterstation pressurevisibilityair tempwater tempwave heightnotes
2019-Dec-11 00:00 220 8
2019-Dec-10 23:45 234 6
2019-Dec-10 23:30 196 7
2019-Dec-10 23:15 117 2
2019-Dec-10 23:02 140 1
2019-Dec-10 22:49 140 1
2019-Dec-10 22:36 204 4
2019-Dec-10 22:16 198 4
2019-Dec-10 22:01 194 6
2019-Dec-10 21:46 196 9
2019-Dec-10 21:31 192 9
2019-Dec-10 21:16 190 8
2019-Dec-10 21:03 205 6
2019-Dec-10 20:45 201 1
2019-Dec-10 20:30 201 1 3.9
2019-Dec-10 20:16 200 3 3.3
2019-Dec-10 20:00 149 1 2.2
2019-Dec-10 19:45 150 1 2.8
2019-Dec-10 19:30 171 2 2.8
2019-Dec-10 19:16 178 1 2.2
2019-Dec-10 19:01 126 1.7
2019-Dec-10 18:47 126 0 2.2
2019-Dec-10 18:30 126 3 2.2
2019-Dec-10 18:16 156 2 2.2
2019-Dec-10 18:01 187 1 1.7
2019-Dec-10 17:46 195 2 1.7
2019-Dec-10 17:30 196 0 1.7
2019-Dec-10 17:15 196 1 1.7
2019-Dec-10 17:00 200 0 1.7
2019-Dec-10 16:45 199 1 1.7
2019-Dec-10 16:30 202 2 1.7
2019-Dec-10 16:18 210 2 2.2
2019-Dec-10 16:01 212 1 2.2
2019-Dec-10 15:48 212 0 3.3
2019-Dec-10 15:33 212 3.9
2019-Dec-10 15:17 212 1 3.9
2019-Dec-10 15:02 212 2 4.4
2019-Dec-10 14:47 212 3 5.0
2019-Dec-10 14:33 212 3 5.0
2019-Dec-10 14:17 215 3 5.6
2019-Dec-10 14:02 218 5 5.6
2019-Dec-10 13:47 219 5 5.6
2019-Dec-10 13:32 211 4 5.6
2019-Dec-10 13:17 202 6 5.6
2019-Dec-10 13:02 222 4 5.6
2019-Dec-10 12:46 254 4 6.1
2019-Dec-10 12:31 248 3 5.6
2019-Dec-10 12:16 252 4 5.6
2019-Dec-10 12:01 238 4 5.6
2019-Dec-10 11:46 230 3 5.6
2019-Dec-10 11:33 250 3 5.6
2019-Dec-10 11:15 263 5 6.1
2019-Dec-10 11:01 264 4 5.6
2019-Dec-10 10:45 261 5 6.1
2019-Dec-10 10:32 271 5 5.6
2019-Dec-10 10:16 259 2 5.0
2019-Dec-10 10:01 267 3 5.0
2019-Dec-10 09:45 271 3 4.4
2019-Dec-10 09:30 271 3 3.9
2019-Dec-10 09:16 267 3 3.9
2019-Dec-10 09:01 271 2 3.3
2019-Dec-10 08:45 282 1 3.3
2019-Dec-10 08:31 282 1 2.8
2019-Dec-10 08:15 283 0 2.8
2019-Dec-10 08:00 283 1 2.8
2019-Dec-10 07:45 283 1 3.3
2019-Dec-10 07:30 283 1 3.3
2019-Dec-10 07:15 284 2 3.9
2019-Dec-10 07:00 282 2 3.9
2019-Dec-10 06:47 296 2 3.9
2019-Dec-10 06:31 305 2 3.9
2019-Dec-10 06:17 278 2 3.9
2019-Dec-10 06:01 277 2 3.9
2019-Dec-10 05:46 282 3 3.3
2019-Dec-10 05:32 291 2 3.9
2019-Dec-10 05:16 300 4 3.9
2019-Dec-10 05:02 284 3 3.9
2019-Dec-10 04:46 292 3 3.3
2019-Dec-10 04:32 293 3 3.3
2019-Dec-10 04:16 292 3 3.3
2019-Dec-10 04:01 281 3 3.3
2019-Dec-10 03:46 282 3 3.3
2019-Dec-10 03:32 280 4 3.3
2019-Dec-10 03:16 287 3 3.3
2019-Dec-10 03:01 297 4 3.3
2019-Dec-10 02:46 287 4 3.3
2019-Dec-10 02:31 280 4 3.3
2019-Dec-10 02:15 295 3 3.3
2019-Dec-10 02:00 281 4 3.3
2019-Dec-10 01:45 285 5 3.3
2019-Dec-10 01:30 284 3 3.9
2019-Dec-10 01:15 302 4 3.9
2019-Dec-10 01:00 278 4 3.9
2019-Dec-10 00:45 286 5 3.9
2019-Dec-10 00:30 281 4 3.9
2019-Dec-10 00:15 279 5 3.9
2019-Dec-10 00:01 284 3 3.9
2019-Dec-09 23:46 277 3 3.9
2019-Dec-09 23:31 292 3 3.9
2019-Dec-09 23:17 295 3 3.9
2019-Dec-09 23:01 294 4 4.4
2019-Dec-09 22:46 277 3 4.4
2019-Dec-09 22:31 283 3 4.4
2019-Dec-09 22:16 276 3
2019-Dec-09 22:01 295 2
2019-Dec-09 21:45 280 2
2019-Dec-09 21:30 294 2
2019-Dec-09 21:15 292 4
2019-Dec-09 21:00 309 3
2019-Dec-09 20:45 323 3
2019-Dec-09 20:30 306 3
2019-Dec-09 20:15 300 4
2019-Dec-09 20:02 311 4
2019-Dec-09 19:47 315 3
2019-Dec-09 19:31 312 4
2019-Dec-09 19:16 325 2
2019-Dec-09 19:01 307 3
2019-Dec-09 18:45 304 4
2019-Dec-09 18:31 309 3
2019-Dec-09 18:16 279 3
2019-Dec-09 18:00 292 4
2019-Dec-09 17:46 290 3
2019-Dec-09 17:30 277 3
2019-Dec-09 17:15 275 2
2019-Dec-09 17:00 277 3
2019-Dec-09 16:47 286 3
2019-Dec-09 16:31 279 3
2019-Dec-09 16:16 281 3
2019-Dec-09 16:02 290 3
2019-Dec-09 15:46 275 3
2019-Dec-09 15:31 272 2
2019-Dec-09 15:16 275 3 6.7
2019-Dec-09 15:01 271 4 6.7
2019-Dec-09 14:46 275 5 6.7
2019-Dec-09 14:31 277 4 7.2
2019-Dec-09 14:15 269 3 7.2
2019-Dec-09 14:00 269 4 7.8
2019-Dec-09 13:45 272 6 7.8
2019-Dec-09 13:30 270 6 7.8
2019-Dec-09 13:15 224 6 8.3
2019-Dec-09 13:00 191 8 8.9
2019-Dec-09 12:45 190 9 8.9
2019-Dec-09 12:30 186 6 8.9
2019-Dec-09 12:15 215 9 8.9
2019-Dec-09 12:00 202 10 8.9
2019-Dec-09 11:45 192 9 8.9
2019-Dec-09 11:30 237 11 8.9
2019-Dec-09 11:15 198 10 9.4
2019-Dec-09 11:00 236 11 8.9
2019-Dec-09 10:45 207 12 8.9
2019-Dec-09 10:30 225 11 8.9
2019-Dec-09 10:15 199 10 8.9
2019-Dec-09 10:00 215 10 8.9
2019-Dec-09 09:45 213 11 8.9
2019-Dec-09 09:32 198 10 8.3
2019-Dec-09 09:16 223 9 8.3
2019-Dec-09 09:03 201 10 8.3
2019-Dec-09 08:47 202 11 8.3
2019-Dec-09 08:32 193 6 7.8
2019-Dec-09 08:16 204 9 7.8
2019-Dec-09 08:01 192 7 7.8
2019-Dec-09 07:47 213 8 7.2
2019-Dec-09 07:30 197 7 7.2
2019-Dec-09 07:17 205 6 7.2
2019-Dec-09 07:02 202 7 7.2
2019-Dec-09 06:46 190 9 7.2
2019-Dec-09 06:31 205 7 7.2
2019-Dec-09 06:16 231 6 7.2
2019-Dec-09 06:01 204 8 7.2
2019-Dec-09 05:46 192 11 7.2
2019-Dec-09 05:31 182 10 7.2
2019-Dec-09 05:16 207 9 7.2
2019-Dec-09 05:00 198 8 7.2
2019-Dec-09 04:45 198 12 7.2
2019-Dec-09 04:31 205 8 7.8
2019-Dec-09 04:15 206 9 7.8
2019-Dec-09 04:01 196 7 7.2
2019-Dec-09 03:45 198 9 7.2
2019-Dec-09 03:30 210 8 7.2
2019-Dec-09 03:15 199 7 7.2
2019-Dec-09 03:00 205 7 7.2
2019-Dec-09 02:45 259 8 7.2
2019-Dec-09 02:30 210 6 7.2
2019-Dec-09 02:15 188 6 7.8
2019-Dec-09 02:00 192 6 7.8
2019-Dec-09 01:45 262 8 7.8
2019-Dec-09 01:30 266 10 7.8
2019-Dec-09 01:15 249 10 7.8
2019-Dec-09 01:00 259 9 7.8
2019-Dec-09 00:50 233 6 7.8
2019-Dec-09 00:31 247 7 7.8
2019-Dec-09 00:16 199 8 7.8
2019-Dec-09 00:01 195 10 7.8